Regional Weather Roundup
Issued by NWS Mt. Holly, NJ

Home | Current Version | Previous Version | Text Only | Print | Product List | Glossary On
Versions: 1 2 3 4 5 6 7 8 9 10 11 12 13 14 15 16 17 18 19 20 21 22 23 24 25 26 27 28
000
ASUS41 KPHI 091612
RWRPHI

REGIONAL WEATHER ROUNDUP
NATIONAL WEATHER SERVICE MOUNT HOLLY NJ
1100 AM EST FRI DEC 09 2016

NOTE:  "FAIR" INDICATES FEW OR NO CLOUDS BELOW 12,000 FEET WITH NO
SIGNIFICANT WEATHER AND/OR OBSTRUCTIONS TO VISIBILITY.

 * = STATION DOES NOT REPORT PRECIPITATION (E.G. RAIN, SNOW, ETC.)
        OR FOG.

NJZ015>026-091700-
SOUTHERN NEW JERSEY

CITY           SKY/WX    TMP DP  RH WIND       PRES   REMARKS
POMONA         SUNNY     38  19  46 W17       30.20F WCI  28
WILDWOOD*      MOSUNNY   36  21  54 W13G26    30.25F WCI  27
MILLVILLE      SUNNY     37  20  50 W12G24    30.24R WCI  29
WRIGHTSTOWN    MOSUNNY   37  19  48 W16       30.16F WCI  27
MOUNT HOLLY    MOSUNNY   36  17  46 W12G22    30.21S WCI  28
TRENTON        SUNNY     37  19  48 NW10G22   30.17S WCI  30

$$
NJZ001>014-091700-
NORTHERN NEW JERSEY

CITY           SKY/WX    TMP DP  RH WIND       PRES   REMARKS
SUSSEX         MOSUNNY   36  15  42 NW10G23   30.10S WCI  28
ANDOVER*         N/A     35  18  49 N9G17     30.11F WCI  28
MORRISTOWN     MOSUNNY   37  19  48 NW17G29   30.13S WCI  28
NEWARK         MOSUNNY   38  19  46 W24G31    30.13S WCI  27
TETERBORO      PTSUNNY   38  19  46 NW15G25   30.10F WCI  29
CALDWELL       MOSUNNY   36  19  50 W20G30    30.12F WCI  25
SOMERVILLE     MOSUNNY   37  17  44 NW15G26   30.13S WCI  28
ALLAIRE*       SUNNY     37  19  48 W20G25    30.15F WCI  27
TOMS RIVER*    SUNNY     37  19  48 W20G30    30.17F WCI  27

$$
PAZ043-044-047-054-055-060>062-066>071-091700-
EASTERN PENNSYLVANIA

CITY           SKY/WX    TMP DP  RH WIND       PRES   REMARKS
PHILADELPHIA   PTSUNNY   36  17  46 W20G26    30.24R WCI  25
NORTH PHILA    PTSUNNY   38  20  48 NW12      30.22S WCI  30
BLUE BELL*     PTSUNNY   32  19  59 W10G21    30.19S WCI  24
DOYLESTOWN     MOSUNNY   37  19  48 W18G26    30.16S WCI  27
QUAKERTOWN*    SUNNY     34  18  51 W12G20    30.18R WCI  25
PERKASIE*      FAIR      36  18  48 NW16G23   30.18R WCI  26
POTTSTOWN      MOSUNNY   34  18  52 NW18G25   30.21R WCI  23
LANCASTER      PTSUNNY   34  19  54 NW23G33   30.23R WCI  22
COATESVILLE    MOSUNNY   34  18  51 NW16G26   30.22S WCI  23
READING        PTSUNNY   36  18  48 W20G31    30.21R WCI  25
ALLENTOWN      PTSUNNY   35  18  49 W17G29    30.17S WCI  25
MOUNT POCONO   CLOUDY    27  17  66 W22G31    30.05F WCI  13
HAZLETON       CLOUDY    32  21  64 W10G20    30.14S WCI  24
LEHIGHTON        N/A     34  19  55 W9G16     30.18S WCI  26
WILKES BARRE   CLOUDY    32  17  54 W17G26    30.14S WCI  21

$$
DEZALL-MDZ008-012-015-019-020-091700-
DELAWARE AND EASTERN MARYLAND

CITY           SKY/WX    TMP DP  RH WIND       PRES   REMARKS
WILMINGTON     MOSUNNY   36  19  50 W20G29    30.25F WCI  25
DOVER          SUNNY     36  20  53 W20       30.25S WCI  25
GEORGETOWN     SUNNY     37  18  46 NW10G24   30.28S WCI  30
EASTON         SUNNY     37  18  44 NW17G25   30.33S WCI  28
ABERDEEN       SUNNY     36  17  46 W14       30.29R WCI  27
PATUXENT       MOSUNNY   37  18  46 NW14      30.32S WCI  28
OCEAN CITY     SUNNY     36  19  50 NW17G24   30.28S WCI  26
WALLOPS ISLAND SUNNY     37  20  50 NW16G25   30.30S WCI  28
CAMBRIDGE      SUNNY     34  19  55 NW16      30.31R WCI  23
SALISBURY      SUNNY     36  19  50 NW15      30.29S WCI  27

$$
PAZ001-021-NYZ056-072-MDZ011-DCZ001-091700-
OTHER NEARBY LOCATIONS

CITY           SKY/WX    TMP DP  RH WIND       PRES   REMARKS
HARRISBURG     MOSUNNY   34  19  54 NW21G29   30.26R WCI  22
STATE COLLEGE  PTSUNNY   28  18  64 W12G23    30.23S WCI  18
WILLIAMSPORT   CLOUDY    33  19  56 W16G25    30.20S WCI  23
BINGHAMTON     SNOW      22  20  92 NW12G21   30.08S VSB 1/2 WCI  10
NEW YORK CITY    N/A     39  19  45 MISG        N/A
BALTIMORE      MOSUNNY   36  17  46 W20G30    30.30S WCI  25
WASHINGTON DC  MOSUNNY   37  17  44 NW18G26   30.34S WCI  27

$$




USA.gov is the U.S. government's official web portal to all federal, state and local government web resources and services.